Flag for Norway Weather past 2 weeks in Hamar, Norway

Now
51 °F

Cool.


Feels Like: 51 °F
Forecast: 39 / 65 °F
Wind: 1 mph from North

Location: Haugedalshogda

Current Time: Sep 19, 2014 at 2:42:41 PM

Latest Report: Sep 19, 2014 at 2:00 PM


Visibility: N/A

Pressure: 30.14 "Hg

Humidity: 82%

Dew point: 46 °F

Location of HamarLocation

Historic Weather in Hamar — Graph

°F

Hamar temperature yesterday

Maximum temperature yesterday: 62 °F (at 4:00 PM)
Minimum temperature yesterday: 33 °F (at 7:00 AM)
Average temperature yesterday: 43 °F

Past Weeks' High & Low Weather Summary

 TemperatureHumidityPressure
High71 °F (Sep 4, 3:00 PM)96% (Sep 19, 9:00 AM)30.56 "Hg (Sep 19, 9:00 AM)
Low32 °F (Sep 13, 6:00 AM)35% (Sep 4, 3:00 PM)29.79 "Hg (Sep 9, 7:00 AM)
Average50 °F81%30.23 "Hg
* Reported Sep 4 1:00 PM — Sep 19 1:00 PM, Hamar, Weather by CustomWeather, © 2014

Note: Actual official high and low records may vary slightly from our data, if they occured in-between our weather recording intervals... More about our weather records

Advertising

Hamar weather history for previous 24 hours

 ConditionsComfort  
Time TempWeatherWind HumidityBarometerVisibility
1:00 PM
Sep 19
51 °FCool.2 mph84%30.15 "HgN/A
12:00 PM48 °FCool.1 mph94%30.16 "HgN/A
11:00 AM46 °FCool.1 mph95%30.17 "HgN/A
10:00 AM45 °FQuite cool.1 mph95%30.18 "HgN/A
9:00 AM43 °FQuite cool.1 mph96%30.17 "HgN/A
8:00 AM42 °FQuite cool.No wind95%30.18 "HgN/A
7:00 AM41 °FQuite cool.No wind94%30.17 "HgN/A
6:00 AM41 °FQuite cool.1 mph94%30.18 "HgN/A
5:00 AM41 °FQuite cool.No wind95%30.18 "HgN/A
4:00 AM40 °FQuite cool.No wind95%30.19 "HgN/A
3:00 AM40 °FQuite cool.1 mph94%30.19 "HgN/A
2:00 AM41 °FQuite cool.1 mph95%30.20 "HgN/A
1:00 AM38 °FChilly.1 mph94%30.22 "HgN/A
12:00 AM37 °FChilly.No wind93%30.22 "HgN/A
11:00 PM
Sep 18
36 °FChilly.No wind92%30.22 "HgN/A
10:00 PM38 °FChilly.No wind91%30.22 "HgN/A
9:00 PM41 °FQuite cool.1 mph91%30.21 "HgN/A
8:00 PM46 °FCool.1 mph89%30.19 "HgN/A
5:00 PM62 °FRefreshingly cool.5 mph59%30.16 "HgN/A
4:00 PM62 °FMild.5 mph56%30.16 "HgN/A
3:00 PM62 °FRefreshingly cool.5 mph57%30.17 "HgN/A
2:00 PM61 °FRefreshingly cool.2 mph59%30.19 "HgN/A
Weather by CustomWeather, © 2014

See weather overviewHow to use our weather pages